Regional Weather Roundup
Issued by NWS

Home | Current Version | Previous Version | Graphics & Text | Print | Product List | Glossary On
Versions: 1 2 3 4 5 6 7 8 9 10 11 12 13 14 15 16 17 18 19 20 21 22 23 24 25 26 27 28 29 30 31 32 33 34 35 36 37 38 39 40 41 42 43 44 45 46 47 48 49 50
721
ASUS43 KOAX 060702
RWRNE

WEATHER ROUNDUP FOR NEBRASKA
NATIONAL WEATHER SERVICE OMAHA NE
100 AM CST SAT FEB 06 2016

NOTES: SATELLITE DATA IS BEING USED TO AUGMENT CLOUD COVER ABOVE
       12000 FEET.
       "FAIR" INDICATES FEW OR NO CLOUDS BELOW 12,000 FEET WITH NO
       SIGNIFICANT WEATHER AND/OR OBSTRUCTIONS TO VISIBILITY.

  * THESE STATIONS DO NOT REPORT WEATHER SUCH AS RAIN...SNOW OR FOG.

NEZ001>004-019>022-054>056-060800-
NEBRASKA PANHANDLE

CITY           SKY/WX    TMP DP  RH WIND       PRES   REMARKS
SCOTTSBLUFF    CLOUDY    14   9  80 NE5       30.24S WCI   6
ALLIANCE       CLOUDY    11   6  81 W12       30.20F WCI  -3
CHADRON        CLOUDY    20  13  74 SW7       30.20F WCI  11
SIDNEY         CLOUDY    17  10  74 W12       30.25S WCI   4
$$

NEZ057>060-069>072-079>082-060800-
SOUTHWEST NEBRASKA

CITY           SKY/WX    TMP DP  RH WIND       PRES   REMARKS
NORTH PLATTE   CLOUDY    16  12  84 CALM      30.27S
IMPERIAL       CLOUDY    19  11  70 NW10      30.28S WCI   7
MCCOOK         CLEAR     19  14  81 W8        30.30R WCI   9
$$

NEZ005>010-023>029-035>040-094-060800-
NORTH CENTRAL NEBRASKA

CITY           SKY/WX    TMP DP  RH WIND       PRES   REMARKS
VALENTINE      CLEAR     22  19  89 W9        30.20S WCI  12
BROKEN BOW     CLEAR     22  19  89 CALM      30.25S
ORD            CLEAR     25  21  85 W13       30.25R WCI  14
$$

NEZ041-046>049-061>064-073>077-083>087-060800-
SOUTH CENTRAL NEBRASKA

CITY           SKY/WX    TMP DP  RH WIND       PRES   REMARKS
GRAND ISLAND   CLEAR     24  20  84 W6        30.27R WCI  17
HASTINGS       CLEAR     29  22  75 NW9       30.26R WCI  20
KEARNEY *      CLEAR     25 -22  12 W8        30.28R WCI  16
$$

NEZ011>018-030>034-042>045-060800-
NORTHEAST NEBRASKA

CITY           SKY/WX    TMP DP  RH WIND       PRES   REMARKS
NORFOLK        FOG       21  19  92 W5        30.23F VSB 1/4 WCI  15
COLUMBUS *     CLEAR     25  16  68 W3        30.26S
TEKAMAH        CLOUDY    32  28  85 NW12      30.26R WCI  23
$$

NEZ050>053-065>068-078-088>093-060800-
SOUTHEAST NEBRASKA

CITY           SKY/WX    TMP DP  RH WIND       PRES   REMARKS
LINCOLN        CLOUDY    35  31  85 NW5       30.28S WCI  31
OMAHA EPPLEY   CLOUDY    29  27  92 NW6       30.26S WCI  23
FALLS CITY     CLEAR     28  24  85 W7        30.26S WCI  21
$$

NEZ044-045-051>053-067-060800-
OMAHA AREA

CITY           SKY/WX    TMP DP  RH WIND       PRES   REMARKS
OMAHA EPPLEY   CLOUDY    29  27  92 NW6       30.26S WCI  23
OFFUTT AFB     CLOUDY    29  29  99 NW7       30.25S WCI  22
$$




USA.gov is the U.S. government's official web portal to all federal, state and local government web resources and services.